Regional Weather Roundup
Issued by NWS

Home | Current Version | Previous Version | Graphics & Text | Print | Product List | Glossary On
Versions: 1 2 3 4 5 6 7 8 9 10 11 12 13 14 15 16 17 18 19 20 21 22 23 24 25 26 27 28 29 30 31 32 33 34 35 36 37 38 39 40 41 42 43 44 45 46 47 48 49 50
000
ASUS43 KLSX 230907
RWRMO

WEATHER SUMMARY FOR MISSOURI
NATIONAL WEATHER SERVICE SPRINGFIELD MO
300 AM CST MON JAN 23 2017

NOTE: "FAIR" INDICATES FEW OR NO CLOUDS BELOW 12,000 FEET WITH NO
       SIGNIFICANT WEATHER AND/OR OBSTRUCTIONS TO VISIBILITY.
       CURRENT SKY AND/OR WEATHER CONDITIONS ARE NOT AVAILABLE FOR
       CHILLICOTHE AND FARMINGTON.

MOZ001>031-035>038-043-044-053-054-231000-
...NORTHERN AND WESTERN MISSOURI...

CITY           SKY/WX    TMP DP  RH WIND       PRES   REMARKS
KANSAS CTY INT CLEAR     30  27  88 W5        29.89S FOG     WCI  25
KANSAS C DTWN  CLEAR     34  31  88 W5        29.90S WCI  30
LEE`S SUMMIT   CLEAR     32  31  96 NW6       29.89S WCI  26
ST JOSEPH      CLOUDY    32  32 100 NW6       29.91F FOG     WCI  26
CHILLICOTHE      N/A     38  34  85 N6        29.88F
KIRKSVILLE     CLOUDY    38  37  97 NW8       29.84R

$$
MOZ066>068-077>081-088>096-101>105-231000-
...SOUTHWEST MISSOURI...

CITY           SKY/WX    TMP DP  RH WIND       PRES   REMARKS
SPRINGFIELD    CLOUDY    38  36  92 NW12      29.86R
JOPLIN         CLOUDY    38  35  89 NW10      29.92F
BRANSON        CLOUDY    37  36  93 NW6       29.86R

$$
MOZ032>034-039>042-045>050-055>058-069>072-231000-
...CENTRAL MISSOURI...

CITY           SKY/WX    TMP DP  RH WIND       PRES   REMARKS
COLUMBIA       CLOUDY    40  36  86 NW10      29.83R
JEFFERSON CITY CLOUDY    40  37  89 NW12      29.84R
ROLLA          CLOUDY    38  36  92 NW12      29.79S
SEDALIA        CLOUDY    39  37  92 NW9       29.87F
WHITEMAN AFB   MOCLDY    37  37 100 NW7       29.86S
WARRENSBURG    CLEAR     34  32  93 NW3       29.88S
OSAGE BEACH    CLOUDY    39  36  89 NW6       29.84F

$$
MOZ051-052-059>065-231000-
...EAST CENTRAL MISSOURI...

CITY           SKY/WX    TMP DP  RH WIND       PRES   REMARKS
ST LOUIS INTL  CLOUDY    40  35  83 NW17      29.75R
SPIRIT OF STL  CLOUDY    40  36  86 NW10      29.77S
ST CHARLES     CLOUDY    40  36  86 NW10      29.76R

$$
MOZ072>076-082>087-097>100-106>115-231000-
...SOUTH CENTRAL AND SOUTHEAST MISSOURI...

CITY           SKY/WX    TMP DP  RH WIND       PRES   REMARKS
CAPE GIRARDEAU PTCLDY    42  35  76 N17G26    29.68R
FARMINGTON     CLOUDY    38  34  85 NW15G21   29.74R WCI  29
POPLAR BLUFF   MOCLDY    43  36  76 N17G26    29.70R
WEST PLAINS    CLOUDY    40  36  86 N15G25    29.77F

$$



USA.gov is the U.S. government's official web portal to all federal, state and local government web resources and services.